EN

Hourly Weather Topolyn

Today, 10 May, Monday

Time Temperature Precipitation Wind Pressure Humidity
00:00 +10°C° 0 mm 2 mps 721 mmHg 75%
01:00 +10°C° 0 mm 2 mps 721 mmHg 76%
02:00 +6°C° 0 mm 1 mps 719 mmHg 88%
03:00 +8°C° 0 mm 1 mps 719 mmHg 76%
04:00 +8°C° 0 mm 1 mps 719 mmHg 79%
05:00 +8°C° 0 mm 1 mps 719 mmHg 74%
06:00 +9°C° 0 mm 1 mps 719 mmHg 69%
07:00 +10°C° 0 mm 1 mps 720 mmHg 73%
08:00 +10°C° 0 mm 2 mps 720 mmHg 79%
09:00 +12°C° 0 mm 3 mps 720 mmHg 80%
10:00 +13°C° 0 mm 3 mps 721 mmHg 77%
11:00 +14°C° 0 mm 3 mps 721 mmHg 77%
12:00 +16°C° 0 mm 2 mps 721 mmHg 76%
13:00 +17°C° 0 mm 2 mps 720 mmHg 78%
14:00 +21°C° 0 mm 2 mps 719 mmHg 48%
15:00 +20°C° 0 mm 2 mps 719 mmHg 67%
16:00 +19°C° 0 mm 2 mps 719 mmHg 72%
17:00 +20°C° 0 mm 1 mps 719 mmHg 76%
18:00 +18°C° 0 mm 0 mps 718 mmHg 80%
19:00 +17°C° 0 mm 0 mps 718 mmHg 83%
20:00 +17°C° 0 mm 0 mps 718 mmHg 78%
21:00 +18°C° 0 mm 1 mps 718 mmHg 75%
22:00 +18°C° 0 mm 1 mps 718 mmHg 73%
23:00 +16°C° 0 mm 1 mps 718 mmHg 71%

Tomorrow, 11 May, Tuesday

Time Temperature Precipitation Wind Pressure Humidity
00:00 +16°C° 0 mm 1 mps 718 mmHg 72%
01:00 +16°C° 0 mm 2 mps 718 mmHg 72%
02:00 +15°C° 0 mm 1 mps 718 mmHg 74%
03:00 +15°C° 0 mm 1 mps 718 mmHg 75%
04:00 +15°C° 0 mm 1 mps 718 mmHg 75%
05:00 +15°C° 0 mm 2 mps 718 mmHg 74%
06:00 +15°C° 0 mm 1 mps 717 mmHg 73%
07:00 +15°C° 0 mm 1 mps 718 mmHg 74%
08:00 +16°C° 0 mm 1 mps 718 mmHg 85%
09:00 +16°C° 0 mm 0 mps 718 mmHg 86%
10:00 +19°C° 0 mm 1 mps 718 mmHg 86%
11:00 +20°C° 0 mm 1 mps 718 mmHg 88%
12:00 +20°C° 0 mm 1 mps 718 mmHg 86%
13:00 +21°C° 0 mm 1 mps 718 mmHg 83%
14:00 +21°C° 0 mm 1 mps 718 mmHg 81%
15:00 +22°C° 0 mm 1 mps 717 mmHg 82%
16:00 +22°C° 0 mm 1 mps 717 mmHg 83%
17:00 +22°C° 0 mm 1 mps 716 mmHg 83%
18:00 +21°C° 0 mm 1 mps 716 mmHg 86%
19:00 +21°C° 0 mm 1 mps 716 mmHg 93%
20:00 +18°C° 0.9 mm 3 mps 716 mmHg 96%
21:00 +18°C° 1.1 mm 2 mps 715 mmHg 93%
22:00 +18°C° 0 mm 2 mps 715 mmHg 88%
23:00 +17°C° 0 mm 2 mps 715 mmHg 86%

Day after tomorrow, 12 May, Wednesday

Time Temperature Precipitation Wind Pressure Humidity
00:00 +16°C° 0 mm 2 mps 715 mmHg 87%
01:00 +16°C° 0 mm 2 mps 714 mmHg 87%
02:00 +15°C° 0 mm 2 mps 714 mmHg 86%
03:00 +15°C° 0 mm 2 mps 714 mmHg 84%
04:00 +15°C° 0 mm 2 mps 713 mmHg 82%
05:00 +15°C° 0 mm 1 mps 713 mmHg 79%
06:00 +14°C° 0 mm 1 mps 713 mmHg 76%
07:00 +15°C° 0 mm 1 mps 713 mmHg 82%
08:00 +16°C° 0 mm 2 mps 713 mmHg 78%
09:00 +17°C° 0 mm 3 mps 713 mmHg 75%
10:00 +17°C° 0 mm 3 mps 713 mmHg 77%
11:00 +18°C° 0 mm 3 mps 712 mmHg 78%
12:00 +19°C° 0 mm 4 mps 712 mmHg 78%
13:00 +19°C° 0 mm 4 mps 712 mmHg 77%
14:00 +20°C° 0 mm 3 mps 711 mmHg 75%
15:00 +20°C° 0 mm 3 mps 710 mmHg 74%
16:00 +19°C° 0 mm 4 mps 710 mmHg 79%
17:00 +15°C° 0.4 mm 6 mps 709 mmHg 90%
18:00 +17°C° 0 mm 4 mps 709 mmHg 85%
19:00 +17°C° 0 mm 4 mps 709 mmHg 88%
20:00 +16°C° 0 mm 3 mps 709 mmHg 87%
21:00 +14°C° 0 mm 3 mps 708 mmHg 85%
22:00 +14°C° 0 mm 4 mps 708 mmHg 83%
23:00 +13°C° 0 mm 4 mps 708 mmHg 83%

13 May, Thursday

Time Temperature Precipitation Wind Pressure Humidity
00:00 +13°C° 0 mm 4 mps 707 mmHg 85%
01:00 +12°C° 0 mm 4 mps 707 mmHg 86%
02:00 +12°C° 0 mm 4 mps 707 mmHg 86%
03:00 +11°C° 0 mm 6 mps 706 mmHg 90%
04:00 +10°C° 0.5 mm 5 mps 706 mmHg 95%
05:00 +10°C° 1.1 mm 5 mps 706 mmHg 98%
06:00 +9°C° 0.5 mm 5 mps 706 mmHg 100%
07:00 +9°C° 1.8 mm 5 mps 706 mmHg 100%
08:00 +10°C° 3.4 mm 4 mps 706 mmHg 100%
09:00 +11°C° 1.2 mm 4 mps 706 mmHg 100%
10:00 +11°C° 2.8 mm 3 mps 706 mmHg 100%
11:00 +12°C° 3.1 mm 3 mps 706 mmHg 100%
12:00 +14°C° 0.9 mm 2 mps 706 mmHg 100%
13:00 +14°C° 0.5 mm 3 mps 705 mmHg 97%
14:00 +17°C° 0 mm 3 mps 705 mmHg 86%
15:00 +13°C° 4.9 mm 4 mps 705 mmHg 100%
16:00 +16°C° 1.1 mm 2 mps 705 mmHg 96%
17:00 +15°C° 1.4 mm 5 mps 705 mmHg 95%
18:00 +15°C° 0 mm 5 mps 705 mmHg 96%
19:00 +14°C° 0 mm 4 mps 705 mmHg 97%
20:00 +13°C° 0.2 mm 4 mps 706 mmHg 100%
21:00 +13°C° 0 mm 4 mps 706 mmHg 100%
22:00 +13°C° 0 mm 3 mps 706 mmHg 100%
23:00 +12°C° 0 mm 4 mps 706 mmHg 99%

14 May, Friday

Time Temperature Precipitation Wind Pressure Humidity
00:00 +12°C° 0 mm 3 mps 706 mmHg 99%
01:00 +12°C° 0.7 mm 3 mps 706 mmHg 100%
02:00 +12°C° 0.2 mm 4 mps 706 mmHg 100%
03:00 +11°C° 0 mm 4 mps 706 mmHg 100%
04:00 +10°C° 0 mm 5 mps 706 mmHg 100%
05:00 +9°C° 0 mm 5 mps 707 mmHg 100%
06:00 +8°C° 0 mm 5 mps 708 mmHg 100%
07:00 +8°C° 0 mm 5 mps 708 mmHg 100%
08:00 +8°C° 0 mm 5 mps 709 mmHg 100%
09:00 +9°C° 0 mm 5 mps 709 mmHg 98%
10:00 +10°C° 0 mm 5 mps 710 mmHg 97%
11:00 +10°C° 0 mm 5 mps 710 mmHg 96%
12:00 +11°C° 0 mm 4 mps 710 mmHg 93%
13:00 +12°C° 0 mm 5 mps 710 mmHg 92%
14:00 +13°C° 0 mm 5 mps 710 mmHg 93%
15:00 +14°C° 0 mm 5 mps 710 mmHg 92%
16:00 +14°C° 0 mm 5 mps 710 mmHg 92%
17:00 +14°C° 0 mm 5 mps 710 mmHg 93%
18:00 +14°C° 0 mm 4 mps 710 mmHg 93%
19:00 +13°C° 0.9 mm 3 mps 710 mmHg 100%
20:00 +13°C° 0 mm 4 mps 710 mmHg 100%
21:00 +12°C° 0 mm 4 mps 710 mmHg 100%
22:00 +12°C° 0 mm 3 mps 711 mmHg 100%
23:00 +12°C° 0 mm 3 mps 711 mmHg 100%

15 May, Saturday

Time Temperature Precipitation Wind Pressure Humidity
00:00 +11°C° 0 mm 3 mps 711 mmHg 100%
01:00 +11°C° 4.1 mm 3 mps 711 mmHg 100%
02:00 +11°C° 1.6 mm 3 mps 711 mmHg 100%
03:00 +12°C° 0 mm 2 mps 711 mmHg 100%
04:00 +12°C° 0 mm 2 mps 711 mmHg 100%
05:00 +12°C° 0 mm 2 mps 711 mmHg 100%
06:00 +12°C° 0 mm 1 mps 711 mmHg 100%
07:00 +12°C° 0 mm 2 mps 712 mmHg 100%
08:00 +12°C° 0 mm 2 mps 712 mmHg 100%
09:00 +13°C° 0 mm 2 mps 712 mmHg 100%
10:00 +14°C° 0 mm 2 mps 713 mmHg 99%
11:00 +14°C° 0 mm 2 mps 713 mmHg 95%
12:00 +15°C° 0 mm 2 mps 713 mmHg 92%
13:00 +16°C° 0 mm 2 mps 713 mmHg 90%
14:00 +17°C° 0 mm 2 mps 713 mmHg 88%
15:00 +17°C° 0 mm 2 mps 713 mmHg 85%
16:00 +17°C° 0 mm 2 mps 712 mmHg 83%
17:00 +18°C° 0 mm 1 mps 712 mmHg 82%
18:00 +18°C° 0 mm 1 mps 712 mmHg 83%
19:00 +15°C° 0 mm 0 mps 712 mmHg 88%
20:00 +15°C° 0 mm 0 mps 712 mmHg 89%
21:00 +14°C° 0 mm 0 mps 712 mmHg 88%
22:00 +15°C° 0 mm 1 mps 712 mmHg 90%
23:00 +15°C° 0 mm 2 mps 712 mmHg 89%
Show more

We Need Your Consent

Meteoprog and our Service Providers may store and access personal data such as cookies, device identifiers or other similar technologies on your device and process such data to personalise content and ads, as well as provide social media features and to analyse the traffic.

  • Store and/or access information on your device

    Cookies, device identifiers or other information can be stored or accessed on your device for the purposes indicated above.

  • Personalised ads and content, ad and content measurement, audience insights, and products development

    Ads and content can be personalised based on a profile. More data can be added to better personalise ads and content. Ad and content performance can be measured. Insights about the audience who saw the ads and content can be derived. Such data can be used to develop or improve user’s experience, systems and software.

By clicking ‘I Agree’ you will allow the use of indicated cookies, device identifiers, web beacons or other similar technologies. Your settings can be changed in the browser on your device.

For certain purposes, legitimate interests may be relied on, rather than consent. You can read more about this in our Privacy and Cookie Policy.